Location: *
(48.4333°N, 5.0333°W)
Time: 18:57:29
(UTC+00:00)

LilacSat-2 - Pass Details

Date: 28 October 2021
Orbit: 511 x 532 km, 97.5° (Epoch: 29 November)

Event Time Altitude Azimuth Distance (km) Brightness Sun altitude
Rises 17:32:37 0° 178° (S) 2,633 ? -4.9°
Reaches altitude 10° 17:34:45 10° 183° (S) 1,747 ? -5.2°
Maximum altitude 17:38:25 50° 260° (W) 665 ? -5.8°
Drops below altitude 10° 17:42:06 10° 337° (NNW) 1,751 ? -6.4°
Sets 17:44:15 0° 343° (NNW) 2,641 ? -6.8°
